Wind_Speed
30 30 31 31 33 34 35 36 37 37 37 37 38 39 40 40 41 41 40 40 39 38 37 36 37 36 36 35 34 33 34 33 33 33 33 33 33 32 32 33 33 33 33
29 30 31 32 33 33 35 37 37 37 37 37 37 38 38 40 40 40 40 41 40 39 38 36 36 37 37 37 36 35 34 35 35 35 34 34 33 33 34 34 33 33 33
28 30 32 31 31 32 35 37 37 38 38 38 37 38 39 39 39 39 40 41 41 40 39 38 37 37 38 37 37 37 36 35 37 37 36 35 35 34 34 34 34 34 33
28 29 31 30 30 30 32 35 37 38 39 37 36 37 39 39 39 40 40 40 40 39 39 38 38 38 39 39 39 39 38 37 37 37 37 36 36 35 34 34 34 35 35
28 29 30 31 30 31 32 34 36 38 38 37 36 36 38 39 39 39 40 40 42 41 40 40 39 39 40 40 40 41 40 40 39 39 39 38 37 36 36 35 35 35 36
27 28 28 29 30 30 32 32 34 37 37 37 36 35 36 38 39 40 39 39 40 41 41 40 40 40 40 40 40 41 41 41 40 39 39 40 38 37 36 37 36 36 37
27 28 28 28 28 29 30 32 32 34 36 37 36 36 36 37 39 39 39 38 38 39 40 40 40 40 39 40 40 42 42 40 39 39 38 39 39 38 38 38 38 38 36
26 26 27 28 28 29 30 31 32 33 35 36 36 36 36 36 38 39 39 39 38 38 40 40 41 41 41 41 40 40 40 40 40 40 40 38 38 39 39 38 38 38 37
24 25 26 27 28 29 31 32 32 33 34 35 36 36 36 37 37 38 37 38 38 38 38 40 41 42 41 41 39 39 40 41 40 40 40 40 39 39 39 39 38 38 37
24 25 26 27 28 30 31 32 32 33 33 35 35 36 36 35 35 36 37 38 38 38 38 38 40 40 40 40 39 39 39 39 39 39 38 39 39 38 38 38 37 37 37
24 26 27 28 29 30 30 31 31 32 33 34 34 35 36 37 37 37 36 38 38 38 37 36 37 37 38 38 38 39 39 39 38 38 37 37 36 36 37 37 37 36 36
25 26 26 27 28 29 29 30 31 31 32 34 34 34 34 35 37 38 38 38 39 39 38 38 37 37 38 38 38 38 38 38 38 38 37 36 36 35 35 36 36 36 35
24 25 25 26 27 28 29 30 31 31 32 33 35 35 34 35 36 37 38 38 39 40 40 40 39 38 37 36 37 37 36 36 36 36 36 36 36 35 35 36 36 36 36
23 24 24 25 26 27 27 28 30 30 31 32 33 34 34 34 35 35 36 37 38 39 39 39 39 38 37 35 35 35 35 35 35 36 36 35 35 35 36 36 36 36 36
24 24 24 25 25 25 26 27 28 29 29 30 32 32 33 34 35 35 35 36 36 37 38 38 38 37 37 35 34 34 35 36 35 35 36 36 35 35 35 36 36 36 36
23 24 24 24 24 25 25 25 25 26 27 28 30 31 31 32 33 34 35 36 36 36 37 38 38 38 37 36 35 34 34 35 37 36 36 37 36 36 36 36 37 36 36
23 23 23 24 24 24 25 25 25 25 26 27 28 29 29 30 31 32 34 35 36 36 36 38 39 39 38 38 37 36 35 36 36 36 36 35 35 36 36 36 37 37 36
23 23 24 24 25 25 24 24 25 25 25 26 27 28 29 30 31 32 33 34 35 35 35 37 38 39 38 38 38 37 36 37 37 37 37 37 36 37 36 36 36 36 37
25 24 24 24 24 25 25 25 26 26 26 26 27 28 29 30 32 33 33 34 35 35 35 35 35 37 38 38 39 38 38 38 37 37 38 38 38 37 36 37 37 36 36
23 24 25 25 25 25 25 25 26 26 27 28 28 29 30 31 32 33 34 34 35 35 36 36 36 37 38 39 39 38 38 37 36 37 37 38 39 39 37 37 36 35 35
24 24 25 25 25 26 26 26 26 27 27 28 29 30 31 32 32 33 34 34 35 35 36 37 37 37 38 38 38 38 37 36 36 36 36 36 37 37 38 37 36 36 35
25 25 25 26 26 26 27 27 28 28 28 29 29 30 31 31 32 33 33 34 34 35 36 36 37 37 37 37 37 37 37 36 36 36 36 36 36 36 36 36 35 35 34
26 26 27 27 27 28 28 29 29 30 30 31 31 31 32 32 32 33 33 34 35 35 36 36 37 37 36 36 36 37 37 37 37 37 37 36 36 36 36 35 35 35 34
27 28 28 28 28 29 29 30 30 31 32 32 33 33 33 33 33 34 34 34 35 35 35 35 35 36 36 37 37 37 37 37 37 37 35 35 35 36 35 34 34 34 34
26 27 28 28 28 29 30 30 31 31 31 32 33 33 34 34 34 34 35 35 35 35 35 35 34 34 35 35 36 36 37 37 37 36 35 34 34 34 34 33 33 32 32
26 26 26 27 28 29 29 30 31 31 32 32 33 33 33 34 34 34 34 34 34 34 34 33 33 33 33 33 34 35 35 35 35 34 34 33 33 33 32 32 32 31 31
Wind_Direction
247 248 249 247 245 242 238 237 239 239 240 241 242 240 241 241 242 243 245 246 249 251 254 256 255 256 258 259 261 264 265 266 270 274 276 278 279 281 282 283 285 288 289
250 249 249 247 245 244 240 239 240 240 242 243 243 241 242 241 242 243 245 246 248 251 254 257 257 256 258 260 262 264 266 267 270 273 275 277 279 280 281 284 285 287 289
252 250 248 247 245 245 242 241 241 241 242 244 245 243 242 243 244 245 246 247 249 251 253 255 257 256 257 260 262 265 266 269 270 270 274 278 279 280 281 283 285 286 288
254 252 249 247 246 245 245 243 242 242 242 245 247 246 245 244 245 246 247 248 249 251 252 255 257 258 258 261 263 265 266 269 271 271 273 276 278 279 281 282 284 286 288
254 250 249 248 247 246 245 245 244 243 243 246 248 251 249 247 247 248 249 251 251 252 254 257 258 260 262 262 264 265 266 269 271 272 273 274 277 278 280 281 283 285 287
255 250 249 248 249 248 246 247 246 245 245 246 249 251 252 250 250 250 251 252 253 254 255 257 258 262 264 265 265 266 267 269 271 273 274 273 274 276 279 281 282 284 286
257 254 251 250 250 251 250 249 249 250 248 247 249 251 254 254 252 251 251 253 254 254 255 257 258 261 263 265 267 267 267 268 270 272 274 274 273 275 278 279 281 282 284
259 257 255 253 252 253 253 251 249 251 250 250 251 253 254 255 254 252 252 253 254 256 257 258 259 260 263 265 268 267 267 268 269 270 272 274 275 275 276 278 281 282 283
259 257 255 255 253 254 254 252 252 253 253 252 252 254 254 254 254 253 253 254 256 258 260 261 261 262 264 265 268 270 270 269 270 271 272 273 275 277 277 278 280 282 281
262 259 255 255 255 255 255 253 253 253 254 254 255 255 254 256 257 255 255 255 256 258 261 263 263 263 264 266 268 269 271 271 271 272 274 276 277 278 279 279 280 281 283
265 264 262 259 256 257 256 254 254 256 257 257 258 258 257 258 258 257 256 256 257 259 261 263 264 264 265 266 268 268 270 271 271 272 272 274 275 275 278 279 280 283 284
268 268 265 263 260 259 259 258 258 259 260 260 259 260 260 259 259 258 258 257 257 259 261 264 265 266 266 266 267 268 269 271 272 272 272 274 274 275 277 278 279 281 283
272 271 267 264 263 262 263 263 262 261 261 261 260 260 261 261 260 260 259 259 258 259 261 262 264 265 266 266 267 268 270 270 271 271 272 273 273 274 274 276 278 280 282
275 274 271 266 265 264 265 265 263 262 263 262 261 261 262 262 261 261 260 261 260 260 260 261 262 264 266 267 267 266 268 269 270 271 272 272 272 272 272 274 276 279 280
275 274 272 270 268 267 266 266 265 264 265 264 263 263 263 264 263 263 263 263 264 263 261 262 263 264 265 266 267 266 268 269 270 271 271 271 272 273 273 273 275 277 279
276 274 273 270 268 268 268 266 265 266 268 267 266 265 266 266 265 264 264 263 264 266 265 264 264 264 265 265 267 268 269 270 270 270 271 272 273 274 273 273 273 276 278
280 277 275 272 270 270 270 268 267 267 270 269 269 269 269 268 268 267 266 265 265 267 267 265 264 265 266 266 266 267 270 270 270 270 271 272 273 274 273 272 273 276 278
279 277 275 274 272 271 271 270 269 270 272 272 271 271 271 270 270 270 269 267 266 266 267 267 266 266 266 266 267 268 269 271 271 271 272 273 273 273 272 272 274 276 277
279 277 275 274 273 271 271 271 271 272 273 274 273 274 274 273 272 271 271 269 269 269 269 269 268 267 266 266 267 268 268 269 270 271 271 272 272 272 272 271 273 275 276
280 277 276 275 273 272 272 273 273 274 275 276 277 276 276 275 274 273 272 271 272 272 271 270 270 268 267 267 267 267 268 268 269 271 271 270 271 271 272 272 272 273 274
280 279 277 277 275 274 273 275 275 276 277 278 279 279 278 276 275 274 273 272 273 273 272 271 271 269 267 266 265 265 267 268 269 271 271 271 271 271 272 272 271 272 272
278 277 276 276 276 275 274 275 276 277 278 280 281 281 281 278 276 275 274 273 274 273 272 271 271 270 268 264 263 263 266 267 269 270 272 272 272 272 273 272 271 271 271
278 277 276 275 275 275 275 275 276 277 278 280 281 281 282 281 279 276 275 275 275 275 274 272 271 269 268 266 264 264 265 267 269 271 272 272 271 271 272 271 271 271 271
280 278 276 275 275 275 276 276 277 278 279 281 282 282 282 280 279 276 275 275 275 275 274 273 272 270 268 266 265 264 264 266 268 269 270 271 271 270 270 270 271 271 270
283 280 278 276 275 275 276 276 277 277 279 281 282 282 282 282 280 278 276 276 276 276 276 274 273 271 269 267 265 264 264 266 267 267 269 269 269 269 268 268 270 270 271
285 283 282 280 279 278 278 278 278 279 280 281 282 282 283 282 281 279 278 277 276 276 275 273 273 273 270 267 264 264 264 266 267 267 267 268 267 267 267 267 268 269 269
Height
5709 5711 5713 5715 5717 5719 5722 5726 5729 5732 5736 5739 5742 5745 5749 5752 5755 5759 5762 5765 5768 5770 5772 5775 5777 5778 5780 5781 5783 5783 5784 5786 5786 5786 5786 5786 5785 5784 5783 5782 5781 5780 5778
5702 5704 5706 5707 5710 5712 5715 5718 5721 5725 5728 5731 5734 5737 5740 5744 5747 5751 5754 5757 5759 5762 5764 5766 5769 5770 5772 5773 5775 5776 5776 5777 5778 5778 5779 5779 5778 5777 5776 5775 5773 5772 5770
5696 5698 5700 5701 5704 5706 5708 5711 5714 5718 5721 5724 5726 5729 5733 5735 5739 5742 5746 5749 5751 5754 5756 5758 5760 5762 5763 5764 5766 5767 5768 5769 5769 5769 5770 5770 5770 5770 5769 5767 5766 5764 5762
5690 5691 5693 5695 5697 5699 5701 5704 5707 5710 5714 5717 5719 5722 5725 5728 5731 5734 5737 5740 5743 5745 5747 5749 5751 5753 5754 5756 5757 5759 5760 5760 5761 5761 5761 5761 5761 5761 5761 5760 5758 5756 5754
5684 5685 5687 5690 5692 5693 5695 5697 5700 5703 5706 5709 5712 5714 5717 5720 5723 5726 5728 5731 5734 5737 5739 5741 5743 5744 5746 5747 5748 5749 5751 5751 5752 5752 5752 5752 5752 5751 5751 5752 5750 5748 5746
5678 5679 5681 5683 5685 5687 5689 5691 5694 5696 5699 5702 5705 5707 5709 5712 5715 5718 5720 5723 5725 5728 5730 5732 5734 5735 5737 5738 5739 5740 5741 5741 5742 5742 5742 5743 5742 5742 5742 5742 5741 5740 5738
5672 5673 5675 5677 5679 5681 5683 5685 5687 5690 5692 5694 5697 5699 5702 5704 5706 5709 5712 5714 5716 5719 5721 5723 5725 5726 5728 5729 5730 5730 5731 5732 5733 5733 5733 5733 5733 5733 5732 5732 5732 5731 5729
5666 5668 5669 5671 5673 5675 5676 5678 5681 5683 5685 5687 5689 5692 5693 5695 5698 5700 5703 5705 5707 5709 5711 5714 5715 5717 5718 5719 5720 5721 5721 5722 5723 5723 5723 5723 5723 5723 5723 5722 5722 5721 5721
5661 5662 5664 5665 5667 5668 5670 5672 5674 5676 5678 5679 5681 5683 5685 5687 5689 5691 5694 5696 5699 5700 5702 5704 5706 5707 5709 5710 5711 5711 5712 5712 5712 5712 5713 5713 5713 5713 5713 5712 5712 5711 5711
5655 5656 5658 5659 5661 5662 5663 5665 5667 5668 5670 5672 5673 5675 5677 5679 5681 5683 5685 5688 5690 5691 5693 5694 5696 5697 5699 5700 5701 5702 5702 5702 5702 5702 5702 5703 5704 5704 5703 5703 5702 5701 5701
5649 5651 5652 5653 5654 5655 5657 5658 5660 5661 5662 5664 5665 5667 5669 5670 5672 5674 5676 5678 5680 5682 5684 5685 5686 5688 5689 5690 5691 5692 5692 5692 5692 5692 5692 5693 5693 5694 5694 5693 5693 5693 5691
5644 5644 5645 5646 5647 5648 5649 5651 5652 5653 5655 5656 5657 5659 5660 5661 5663 5665 5666 5668 5670 5672 5674 5675 5676 5678 5679 5680 5681 5681 5682 5682 5682 5682 5683 5683 5683 5684 5684 5684 5684 5684 5683
5638 5638 5639 5640 5641 5642 5642 5643 5644 5645 5647 5648 5649 5650 5651 5652 5654 5655 5657 5658 5660 5662 5664 5665 5666 5668 5669 5670 5671 5671 5672 5672 5673 5673 5673 5674 5674 5674 5674 5674 5674 5674 5673
5633 5633 5633 5633 5634 5635 5635 5636 5637 5637 5638 5639 5640 5641 5642 5643 5644 5646 5647 5649 5650 5652 5653 5655 5656 5657 5659 5660 5661 5662 5662 5663 5663 5663 5664 5664 5664 5664 5665 5665 5665 5664 5664
5627 5627 5627 5627 5628 5628 5629 5629 5629 5630 5630 5631 5632 5633 5634 5634 5636 5637 5638 5639 5640 5642 5643 5645 5646 5647 5649 5650 5651 5652 5652 5653 5654 5654 5654 5654 5654 5654 5655 5655 5655 5654 5654
5621 5621 5621 5621 5621 5621 5622 5622 5622 5622 5623 5623 5624 5624 5625 5626 5627 5627 5629 5630 5631 5632 5633 5635 5636 5637 5638 5639 5640 5641 5642 5643 5643 5644 5644 5644 5644 5645 5645 5644 5645 5645 5644
5614 5614 5614 5614 5614 5615 5615 5615 5615 5615 5615 5615 5616 5616 5617 5617 5618 5619 5620 5621 5622 5623 5624 5625 5626 5627 5628 5629 5630 5631 5632 5633 5633 5633 5634 5634 5634 5634 5634 5634 5634 5634 5634
5608 5608 5607 5608 5608 5608 5608 5608 5608 5608 5608 5608 5608 5609 5609 5609 5610 5610 5611 5612 5613 5613 5614 5615 5615 5616 5617 5618 5619 5620 5621 5622 5622 5622 5623 5623 5624 5624 5624 5624 5624 5624 5624
5601 5601 5601 5601 5601 5601 5601 5601 5601 5601 5601 5601 5600 5600 5600 5601 5601 5601 5601 5602 5603 5603 5604 5604 5605 5606 5607 5607 5608 5609 5610 5611 5611 5612 5612 5613 5613 5613 5613 5614 5614 5614 5613
5595 5595 5594 5594 5594 5594 5594 5594 5594 5594 5594 5593 5593 5592 5592 5592 5592 5592 5592 5592 5593 5593 5594 5594 5594 5595 5595 5596 5597 5597 5598 5600 5601 5601 5602 5602 5602 5602 5602 5603 5603 5603 5603
5588 5588 5587 5587 5587 5587 5587 5587 5587 5587 5586 5585 5585 5584 5583 5583 5583 5583 5583 5583 5583 5583 5583 5583 5584 5583 5584 5584 5585 5586 5587 5589 5590 5590 5591 5591 5591 5591 5592 5592 5592 5592 5592
5581 5581 5581 5580 5580 5579 5579 5579 5579 5579 5578 5578 5577 5576 5575 5574 5574 5573 5573 5573 5573 5573 5573 5572 5572 5572 5572 5573 5574 5575 5576 5578 5579 5580 5580 5580 5581 5581 5581 5581 5581 5581 5582
5574 5574 5573 5573 5572 5572 5572 5571 5571 5570 5570 5569 5568 5567 5566 5565 5564 5564 5563 5563 5563 5562 5562 5562 5561 5561 5561 5562 5563 5564 5566 5567 5568 5569 5569 5570 5570 5570 5570 5570 5570 5570 5571
5566 5566 5565 5565 5564 5564 5563 5563 5562 5562 5561 5560 5559 5558 5557 5556 5555 5554 5553 5553 5552 5552 5551 5551 5550 5550 5551 5551 5552 5554 5555 5556 5557 5558 5558 5559 5559 5559 5560 5560 5560 5560 5560
5558 5558 5557 5556 5556 5555 5555 5554 5554 5553 5552 5551 5550 5549 5547 5546 5545 5544 5543 5542 5542 5541 5541 5540 5540 5540 5540 5540 5541 5542 5544 5545 5546 5547 5548 5548 5549 5549 5549 5549 5549 5550 5550
5551 5550 5549 5548 5547 5547 5546 5545 5545 5544 5543 5541 5540 5539 5537 5536 5535 5534 5533 5531 5531 5530 5530 5529 5529 5529 5529 5529 5530 5531 5533 5534 5535 5536 5537 5538 5538 5539 5539 5539 5540 5540 5540